OBJECT C, 61871

Orbit data source: Space-Track

You're viewing an Uncataloged Satellite

Recently launched and/or uncataloged satellites may have evolving metadata. Metadata may include but not limited to: Owner, Maufacturer, Bus, Motor, and Mission.

OBJECT C, 61871 is a satellite owned by Hangtian Hongtu (CN) in SSO that was launched on Sat, 09 Nov 2024 UTC via a CHANG ZHENG 2C launch vehicle from the Jiuquan Satellite Launch Center, China (JSC). Unknown objects in Earth's orbit typically refer to objects detected orbiting the Earth but have not yet been identified or cataloged. These objects could be anything from previously untracked satellites, spent rocket stages, debris from satellite collisions, or even natural meteoroids temporarily captured by Earth's gravity.

Loading next visibility...
OBJECT C details
Identifier
61871, 2024-203C
Orbit
SSO
Last TLE update11 hours ago
Origin
Flag of CNHangtian Hongtu (CN / PRC)
ManufacturerYinhe
MissionOperational spacecraft
Bus & MotorPIESAT, Unknown motor
Mass270 kg wet, 270 kg dry
Launch date (UTC)
2024-11-09 (1 month ago)
Launch vehicle
CHANG ZHENG 2C
Launch site
Jiuquan Satellite Launch Center, China (JSC)
Object typeUnknown
Shape & HBRUnknown
Radar Cross SectionLarge (>1 m²)

Expand to show TLE details & history

TLE from 11 hours ago
0 OBJECT C
1 61871U 24203C   24348.42826484  .00011093  00000-0  59839-3 0  9994
2 61871  97.4945  52.6969 0018236 103.4342 256.8923 15.14787197  5186
Epoch: 2024-12-13T10:16Z
Definitive object data (Epoch: 2024-12-13T10:16:42.082Z)
Latitude-0.0001°
Longitude175.92719°
Altitude527.581 km
Speed7.598 km/s
True Right ascension03h 30m 47s
True Declination0° 00' 00"
Sunlit
Object was in full shadow at TLE epoch
Visualization TLE readout
Latitude-66.56633°
Longitude-21.20673°
Altitude557.22 km
Speed7.576 km/s
Apparent Right ascension09h 34m 15s
Apparent Declination-64° 24' 14"
Sunlit
Object is in daylight
Visualization observer readout
Local Sidereal Time19:24:22
Azimuth206.867° SW
Elevation-59.121°
Doppler factor1
Orbital elements
Apogee altitude531.178 km
Perigee altitude506.024 km
Semi-major axis6,896.738 km
Eccentricity0.0018236
Inclination97.4945°
RAAN52.6969°
Arg. of periapsis103.4342°
True anomaly256.68888°
Mean anomaly256.8923°
Eccentric anomaly256.79058°
Mean motion3.78946 °/min
BSTAR0.00059839
Orbital period95 mins
Loading maneuver chart data...
Loading historical data...
Loading historical data...
Loading historical data...
Loading historical data...
Loading historical data...
Loading historical data...
Loading historical data...
Other satellites on launch #203 in the year 2024 (2024-11-09 UTC)

OBJECT C Visibility forecast

Observer location: undefined°, undefined

Span
Click to sort rows by Start time (UTC) header in descending order
Start Az.
Max El. time (UTC)
Max El. Az.
Max El.
End time (UTC)
End Az.
5 mins2024-12-14 03:51:43.832Z121.996° SE2024-12-14 03:54:43.832Z57.129° ENE23.066°2024-12-14 03:56:43.832Z19.711° NNE
4 mins2024-12-14 05:26:43.832Z233.007° WSW2024-12-14 05:28:43.832Z272.965° WNW17.686°2024-12-14 05:30:43.832Z307.83° NW
5 mins2024-12-14 16:58:43.832Z36.408° NE2024-12-14 17:00:43.832Z84.545° E32.503°2024-12-14 17:03:43.832Z164.429° S
|